Reflectivity
-20 -20 -20 -20 -20 -20 -20 -20 -20 -20 -20 -20 -20 -20 -20 -20 -20 -20 -20 -20 -20 -20 -20 -20 -20 -20 -1
-20 -20 -20 -20 -20 -20 -20 -20 -20 -20 -20 -20 -20 -20 -20 -20 -20 -20 -20 -20 -20 -20 -20 -20 -20 -20 -20
-20 -20 -20 -20 -20 -20 -20 -20 -20 -20 -20 -20 -20 -20 -20 -20 -20 -20 -20 -20 -20 -20 -20 -20 -20 -20 -20
-20 -20 -20 -20 -20 -20 -20 -20 -20 -20 -20 -20 -20 -20 -20 -20 -20 -20 -20 -20 -20 -20 -20 -20 -20 -20 -20
-20 -20 -20 -20 -20 -20 -20 -20 -20 -20 -20 -20 -20 -20 -20 -20 -20 -20 -20 -20 -20 -20 -20 -20 -20 -20 -20
-20 -20 -20 -20 -20 -20 -20 -20 -20 -20 -20 -20 -20 -20 -20 -20 -20 -20 -20 -20 -20 -6 -20 -20 -20 -20 -20
-20 -20 -20 -20 -20 -20 -20 -20 -20 -20 -20 -20 -20 -20 -20 -20 -20 -20 -20 -20 -20 -20 -20 -20 -20 -20 -20
-20 -20 -20 -20 -20 -20 -20 -20 -20 -20 -20 -20 -20 -20 -20 -20 -20 -20 -20 -20 -20 -20 -20 -20 -9 -2 -19
-20 -20 -20 -20 -20 -20 -20 -20 -20 -20 -20 -20 -20 -20 -20 -20 -20 -20 -20 -20 -20 -20 -20 -20 -20 -20 -20
-20 -20 -20 -20 -20 -20 -20 -20 -20 -20 -20 -20 -20 -20 -20 -20 -20 -20 -20 -20 -20 -20 -20 -20 -20 -20 -20
-20 -20 -20 -20 -20 -20 -20 -20 -20 -20 -20 -5 -20 -20 -20 -19 -20 -20 -20 -20 -20 -20 -20 -20 -20 -20 -20
-20 -20 -20 -20 -20 -20 -20 -20 -20 -20 -20 -20 -20 -20 -20 -20 -20 -20 -20 -20 -20 -20 -20 -20 -20 -20 -20
-20 -20 -20 -20 -20 -20 -20 -20 -20 -20 -20 -20 -20 -20 -20 -20 -20 -20 -20 -20 -20 -20 -20 -20 -20 -20 -20
-20 -20 -20 -20 -20 -20 -20 -20 -20 -20 -20 -20 -20 -20 -20 -20 -20 -20 -20 -20 -20 -20 -20 -20 -20 -20 -20
-20 -20 -20 -20 -20 -20 -20 -20 -20 -20 -20 -20 -20 -20 -20 -20 -20 -20 -20 -20 -20 -20 -20 -20 -20 -20 -20
-20 -20 -20 -20 -20 -20 -20 -20 -20 -20 -20 -20 -20 -20 -20 -20 -20 -20 -20 -20 -20 -20 -14 -12 -20 -20 -20
-20 -20 -20 -20 -20 -20 -20 -20 -20 -20 -20 -20 -20 -20 -20 -20 -20 -20 -20 -20 -20 -20 -8 -15 -20 -20 -20
Wind_Speed
1 2 3 3 4 4 4 4 4 7 8 9 8 9 9 9 9 9 9 9 10 11 11 12 12 13 14
1 2 3 2 2 3 3 3 4 8 8 9 8 8 8 9 10 9 8 9 9 10 10 11 12 12 13
3 1 2 2 3 3 3 3 3 8 8 11 11 10 10 10 11 10 9 8 8 9 10 11 12 13 14
4 3 2 2 3 3 3 3 3 4 6 8 10 10 11 10 11 10 9 8 8 8 9 10 11 13 13
3 2 2 2 3 1 2 2 2 3 3 3 3 3 4 8 7 9 10 11 8 9 9 9 11 11 12
2 3 2 2 1 1 1 2 2 1 3 4 2 3 3 4 10 10 10 11 11 10 10 9 11 11 12
4 2 3 3 3 1 1 0 1 3 2 3 2 3 3 4 12 11 11 11 11 12 13 10 11 12 13
4 4 3 3 3 2 2 1 2 3 3 2 1 2 3 5 11 7 10 12 13 15 15 15 15 16 17
5 4 3 2 3 3 1 2 2 2 1 2 2 3 3 3 3 3 14 16 17 16 17 18 19 21 11
3 4 5 4 5 2 2 2 1 2 1 1 2 3 4 2 2 4 4 13 16 16 18 19 19 6 4
3 1 2 2 2 2 0 2 2 3 4 1 1 1 2 4 2 2 4 4 5 8 15 18 19 16 7
2 1 0 0 1 2 2 1 2 3 4 2 2 2 1 5 6 2 4 5 4 5 6 11 15 19 19
2 2 2 2 1 1 2 2 2 3 4 3 2 3 2 3 6 3 8 3 6 6 4 6 7 6 8
2 2 1 1 1 1 1 1 1 3 3 4 4 3 3 4 6 7 5 4 5 7 7 6 6 6 7
2 3 2 2 2 1 1 1 2 2 4 3 4 5 5 6 6 6 6 6 7 7 8 8 6 6 7
3 3 3 3 2 1 2 2 3 3 3 3 3 3 3 4 11 6 5 5 5 6 7 8 9 8 8
4 4 3 3 5 2 3 3 4 4 4 3 2 2 5 7 3 11 3 5 7 8 7 7 10 10 9
Wind_Direction
90 38 59 49 26 26 39 39 16 28 44 42 41 40 38 30 21 17 10 4 358 354 352 355 355 353 350
98 60 80 42 53 50 12 40 20 21 37 33 39 32 26 22 18 6 360 355 351 351 353 353 350 347 344
123 103 77 40 60 34 37 10 10 23 49 44 37 30 18 10 0 350 346 340 342 348 348 345 342 341 340
81 88 98 35 75 66 25 23 9 11 30 32 17 6 356 352 349 342 333 328 330 335 337 338 340 338 335
83 79 66 59 69 5 57 343 6 22 346 340 344 341 337 346 331 330 339 328 302 308 320 333 342 334 334
115 117 112 108 76 70 46 33 342 343 359 312 331 328 322 323 329 329 329 328 329 329 328 331 326 326 321
121 142 133 159 140 110 100 120 250 288 18 299 333 322 312 314 319 327 329 328 323 321 320 323 323 317 323
117 158 146 168 174 165 178 254 283 277 163 251 295 284 298 294 319 345 12 354 345 336 326 319 316 314 312
147 175 183 134 162 103 341 91 303 272 225 187 287 285 268 286 307 327 350 344 332 324 321 319 316 310 318
50 53 47 22 35 113 159 165 204 328 285 343 315 354 328 286 303 321 350 325 323 322 317 312 311 311 292
123 68 16 353 3 23 69 197 182 239 275 41 237 294 225 295 285 296 287 296 300 297 303 309 309 311 307
146 171 173 66 359 349 355 6 259 260 296 300 216 183 219 290 286 292 301 280 274 278 288 295 305 308 308
179 204 179 183 243 321 321 338 319 315 309 295 221 259 185 249 283 280 306 285 276 277 277 284 289 291 296
178 185 142 152 200 204 207 287 321 297 292 295 310 282 267 246 268 280 270 272 294 289 285 285 283 280 278
157 177 197 195 216 187 226 263 204 270 294 285 279 277 258 251 274 260 268 269 273 280 288 290 283 283 282
177 189 199 202 221 241 214 195 239 268 273 275 291 342 332 283 240 255 269 273 285 296 291 287 290 285 286
196 203 201 204 257 208 228 235 256 256 255 246 260 145 292 283 260 277 279 308 294 290 283 277 285 284 291